Home > Weather > Alert > Past weeks

Flag for Canada Weather for the Past 2 Weeks in Alert, Nunavut, Canada

Now
-18 °F

Light snow. Partly sunny.


Feels Like: -29 °F
Forecast: N/A
Wind: 3 mph from South

Location: Alert Airport

Current Time: Feb 11, 2016 at 6:41:56 PM

Latest Report: Feb 11, 2016 at 4:00 PM


Visibility: 10 mi

Pressure: 30.34 "Hg

Humidity: 69%

Dew point: -26 °F

Location of AlertLocation

Historic Weather in Alert — Graph

°F

Alert Temperature Yesterday

Maximum temperature yesterday: -20 °F (at 3:00 PM)
Minimum temperature yesterday: -31 °F (at 4:00 AM)
Average temperature yesterday: -25 °F

High & Low Weather Summary for the Past Weeks

 TemperatureHumidityPressure
High1 °F (Jan 29, 3:00 AM)85% (Jan 29, 3:00 AM)30.45 "Hg (Jan 29, 3:00 AM)
Low-31 °F (Feb 10, 4:00 AM)56% (Jan 28, 4:00 AM)29.67 "Hg (Jan 28, 10:00 AM)
Average-19 °F69%30.15 "Hg
* Reported Jan 28 2:00 AM — Feb 11 4:00 PM, Alert, Weather by CustomWeather, © 2016

Note: Actual official high and low records may vary slightly from our data, if they occured in-between our weather recording intervals... More about our weather records

Advertising

Alert Weather History for the Previous 24 Hours

 ConditionsComfort  
Time TempWeatherWind HumidityBarometerVisibility
4:00 PM
Thu, Feb 11
-18 °FLight snow. Partly sunny.3 mph69%30.34 "Hg10 mi
3:00 PM-18 °FLight snow. Partly sunny.3 mph69%30.34 "Hg10 mi
2:00 PM-18 °FLight snow. Partly sunny.2 mph69%30.34 "Hg5 mi
1:00 PM-20 °FPartly sunny.3 mph68%30.34 "Hg10 mi
12:00 PM-20 °FPassing clouds.5 mph68%30.34 "Hg10 mi
11:00 AM-24 °FPassing clouds.3 mph61%30.35 "Hg10 mi
10:00 AM-31 °FPassing clouds.No wind67%30.36 "Hg10 mi
9:00 AM-26 °FScattered clouds.6 mph75%30.36 "Hg10 mi
8:00 AM-24 °FPassing clouds.2 mph61%30.36 "Hg10 mi
7:00 AM-18 °FPassing clouds.No wind75%30.36 "Hg10 mi
6:00 AM-26 °FPassing clouds.3 mph67%30.36 "Hg10 mi
5:00 AM-20 °FPassing clouds.2 mph75%30.37 "Hg10 mi
4:00 AM-22 °FClear.No wind62%30.38 "Hg10 mi
3:00 AM-20 °FClear.5 mph68%30.38 "Hg10 mi
2:00 AM-17 °FClear.5 mph76%30.39 "Hg10 mi
1:00 AM-22 °FPassing clouds.3 mph56%30.40 "Hg10 mi
Weather by CustomWeather, © 2016

See weather overviewHow to use our weather pages